Regional Weather Roundup
Issued by NWS

Home | Current Version | Previous Version | Graphics & Text | Print | Product List | Glossary On
Versions: 1 2 3 4 5 6 7 8 9 10 11 12 13 14 15 16 17 18 19 20 21 22 23 24 25 26 27 28 29 30 31 32 33 34 35 36 37 38 39 40 41 42 43 44 45 46 47 48 49 50
279
ASUS43 KLMK 210610
RWRKY
KENTUCKY REGIONAL WEATHER ROUNDUP
NATIONAL WEATHER SERVICE LOUISVILLE KY
100 AM EST SAT JAN 21 2017

NOTE "FAIR" INDICATES FEW OR NO CLOUDS BELOW 12,000 FEET
WITH NO SIGNIFICANT WEATHER AND/OR OBSTRUCTIONS TO VISIBILITY.

KYZ001>023-026-027-061>063-070>075-210700-
WESTERN AND SOUTH CENTRAL KENTUCKY

CITY           SKY/WX    TMP DP  RH WIND       PRES   REMARKS
PADUCAH        CLEAR     59  52  77 SW9       29.67S
HENDERSON      PTCLDY    55  50  82 S9        29.67F
OWENSBORO      CLOUDY    53  50  89 SE6       29.70S
HOPKINSVILLE   PTCLDY    58  53  84 S5        29.72S
BOWLING GREEN  PTCLDY    60  52  74 S8        29.74S
GLASGOW        CLOUDY    57  50  77 SW3       29.75S
$$

KYZ024-025-028>034-038-045-046-053-210700-
NORTH CENTRAL KENTUCKY

CITY           SKY/WX    TMP DP  RH WIND       PRES   REMARKS
LOUISVILLE/SDF CLOUDY    55  49  80 SE7       29.72F
LOUISVILLE/LOU CLOUDY    56  49  77 CALM      29.73F
FORT KNOX      PTCLDY    54  50  88 S6        29.71F
$$

KYZ035>037-039>044-047>052-055>060-089>105-210700-
NORTHEAST KENTUCKY

CITY           SKY/WX    TMP DP  RH WIND       PRES   REMARKS
LEXINGTON      MOCLDY    55  47  74 S12       29.77F
COVINGTON      CLOUDY    51  47  86 S7        29.74F
FRANKFORT      CLOUDY    54  46  74 S3        29.74F
$$

KYZ054-064>069-076>088-106>120-210700-
SOUTHEAST KENTUCKY

CITY           SKY/WX    TMP DP  RH WIND       PRES   REMARKS
JACKSON        CLEAR     55  47  74 VRB3      29.81F
LONDON         PTCLDY    50  45  83 CALM      29.81S
SOMERSET       MOCLDY    52  46  82 S5        29.80F
MIDDLESBORO    PTCLDY    45  45 100 CALM      29.85F
MONTICELLO     CLOUDY    56  49  77 E6        29.80F
$$





USA.gov is the U.S. government's official web portal to all federal, state and local government web resources and services.